Fort Knox, KY

12:52 PM EDT on March 27, 2017 (GMT -0400)
Godman Army Air Field

Weather History for KFTK - February, 2014

Change the Weather History Date:

Sunday, February 23, 2014

  Actual Average Record
Temperature  
Mean Temperature 36 °F -  
Max Temperature 45 °F 46 °F 69 °F (2012)
Min Temperature 27 °F 29 °F 12 °F (2015)
Degree Days  
Heating Degree Days 28    
Moisture  
Dew Point 31 °F    
Average Humidity 77    
Maximum Humidity 93    
Minimum Humidity 66    
Precipitation  
Precipitation 0.00 in - - ()
Sea Level Pressure  
Sea Level Pressure 30.10 in    
Wind  
Wind Speed 10 mph (North)    
Max Wind Speed 18 mph    
Max Gust Speed 24 mph    
Visibility 10 miles    
Events Rain , Snow    
Averages and records for this station are not official NWS values.
T = Trace of Precipitation, MM = Missing Value Source: NWS Daily Summary

Daily Weather History Graph

Daily Weather History Graph

Search for Another Location

Airport or City:

Trip Planner

Search our weather history database for the weather conditions in past years. The results will help you decide how hot, cold, wet, or windy it might be!

Date:

Astronomy

Feb. 23, 2014 Rise Set
Actual Time 7:23 AM EST 6:31 PM EST
Civil Twilight 6:57 AM EST 6:57 PM EST
Nautical Twilight 6:26 AM EST 7:28 PM EST
Astronomical Twilight 5:56 AM EST 7:58 PM EST
Moon 2:18 AM EST (2/23) 12:36 PM EST (2/23)
Length of Visible Light 12h 00m
Length of Day
11h 07m
Last Quarter, 39% of the Moon is Illuminated
Feb 23
Last Quarter
Mar 1
New
Mar 8
First Quarter
Mar 16
Full
Mar 23
Last Quarter

Hourly Weather History & Observations

Time (EST) Temp. Windchill Dew Point Humidity Pressure Visibility Wind Dir Wind Speed Gust Speed Precip Events Conditions
12:58 AM 41.5 °F 33.8 °F 31.8 °F 68% 30.00 in 10.0 mi North 15.0 mph 19.6 mph N/A   Mostly Cloudy
1:58 AM 39.4 °F 34.5 °F 30.4 °F 70% 30.01 in 10.0 mi NE 6.9 mph - N/A   Clear
2:58 AM 37.6 °F 33.1 °F 29.7 °F 73% 30.02 in 10.0 mi North 5.8 mph - N/A   Clear
3:58 AM 36.7 °F 32.0 °F 29.5 °F 75% 30.01 in 10.0 mi NE 5.8 mph - N/A   Clear
4:58 AM 36.0 °F 32.1 °F 29.7 °F 78% 30.02 in 10.0 mi NE 4.6 mph - N/A   Partly Cloudy
5:58 AM 36.7 °F 32.0 °F 30.0 °F 77% 30.01 in 10.0 mi ENE 5.8 mph - N/A   Overcast
6:58 AM 35.8 °F 29.4 °F 29.8 °F 79% 30.01 in 10.0 mi ENE 8.1 mph - N/A   Clear
7:58 AM 34.9 °F 29.9 °F 29.7 °F 81% 30.04 in 10.0 mi North 5.8 mph - N/A   Scattered Clouds
8:58 AM 37.9 °F 31.5 °F 31.5 °F 77% 30.07 in 10.0 mi North 9.2 mph - N/A   Scattered Clouds
9:58 AM 39.2 °F 33.0 °F 32.5 °F 77% 30.10 in 10.0 mi North 9.2 mph - N/A   Mostly Cloudy
10:58 AM 43.9 °F 37.5 °F 34.5 °F 70% 30.10 in 10.0 mi North 12.7 mph - N/A   Partly Cloudy
11:58 AM 45.1 °F 38.1 °F 34.3 °F 66% 30.10 in 10.0 mi North 16.1 mph 23.0 mph N/A   Mostly Cloudy
12:18 PM 44.6 °F 37.4 °F 33.8 °F 66% 30.08 in 10.0 mi North 16.1 mph 24.2 mph N/A   Overcast
12:43 PM 41.0 °F 33.5 °F 33.8 °F 76% 30.09 in 10.0 mi North 13.8 mph 20.7 mph N/A   Overcast
12:58 PM 41.0 °F 33.1 °F 33.4 °F 74% 30.10 in 10.0 mi NNE 15.0 mph 23.0 mph N/A   Overcast
1:18 PM 42.8 °F 35.8 °F 33.8 °F 70% 30.07 in 10.0 mi North 13.8 mph 20.7 mph N/A   Mostly Cloudy
1:58 PM 43.5 °F 35.5 °F 33.6 °F 68% 30.10 in 10.0 mi North 18.4 mph - N/A   Overcast
2:23 PM 42.8 °F 35.8 °F 32.0 °F 66% 30.09 in 10.0 mi NNE 13.8 mph - N/A   Overcast
2:28 PM 41.0 °F 33.9 °F 32.0 °F 70% 30.09 in 10.0 mi NNE 12.7 mph - N/A   Overcast
2:56 PM 41.0 °F 35.2 °F 32.0 °F 70% 30.08 in 10.0 mi NNE 9.2 mph - N/A   Mostly Cloudy
2:58 PM 41.0 °F 35.8 °F 32.0 °F 70% 30.11 in 10.0 mi NNE 8.1 mph - N/A   Mostly Cloudy
3:01 PM 41.0 °F 35.8 °F 32.0 °F 70% 30.08 in 10.0 mi North 8.1 mph - N/A Rain Light Rain
3:18 PM 39.2 °F 32.0 °F 32.0 °F 75% 30.10 in 10.0 mi North 11.5 mph - N/A Rain Light Rain
3:23 PM 39.2 °F 33.6 °F 32.0 °F 75% 30.10 in 10.0 mi North 8.1 mph - N/A   Mostly Cloudy
3:24 PM 39.2 °F 33.0 °F 32.0 °F 75% 30.10 in 10.0 mi North 9.2 mph - N/A Rain Light Rain
3:29 PM 39.2 °F 33.6 °F 32.0 °F 75% 30.10 in 10.0 mi North 8.1 mph - N/A Rain Light Rain
3:54 PM 39.2 °F 35.0 °F 33.8 °F 81% 30.11 in 10.0 mi North 5.8 mph - N/A   Mostly Cloudy
3:58 PM 39.2 °F 32.5 °F 33.8 °F 81% 30.12 in 10.0 mi North 10.4 mph - 0.00 in   Overcast
4:07 PM 39.2 °F 31.6 °F 33.8 °F 81% 30.09 in 10.0 mi North 12.7 mph - N/A   Overcast
4:47 PM 35.6 °F 26.6 °F 32.0 °F 87% 30.12 in 4.0 mi North 13.8 mph - N/A Snow Light Snow
4:57 PM 35.6 °F 27.5 °F 32.0 °F 87% 30.12 in 3.0 mi North 11.5 mph - N/A Snow Light Snow
4:58 PM 34.9 °F 26.6 °F 32.4 °F 91% 30.15 in 3.0 mi North 11.5 mph - 0.00 in Snow Light Snow
5:55 PM 33.8 °F 27.0 °F 32.0 °F 93% 30.12 in 10.0 mi North 8.1 mph - N/A   Overcast
5:58 PM 34.0 °F 27.2 °F 32.0 °F 92% 30.15 in 10.0 mi North 8.1 mph - 0.00 in   Overcast
6:58 PM 33.6 °F 27.5 °F 30.9 °F 90% 30.18 in 10.0 mi NNW 6.9 mph - N/A   Mostly Cloudy
7:58 PM 31.5 °F 25.8 °F 28.8 °F 90% 30.19 in 10.0 mi NW 5.8 mph - N/A   Scattered Clouds
8:58 PM 30.7 °F 24.1 °F 28.4 °F 91% 30.19 in 10.0 mi NW 6.9 mph - N/A   Scattered Clouds
9:58 PM 30.7 °F 24.9 °F 26.4 °F 84% 30.22 in 10.0 mi NNW 5.8 mph - N/A   Clear
10:58 PM 28.4 °F 22.2 °F 23.9 °F 83% 30.24 in 10.0 mi NW 5.8 mph - N/A   Clear
11:58 PM 27.3 °F 20.9 °F 17.6 °F 67% 30.25 in 10.0 mi North 5.8 mph - N/A   Clear